Location: Bad Salzschlirf
(50.3750°N, 9.3000°E)
Time: 05:30:51
(UTC+01:00)

ISS - Pass Details

Date: 09 November 2018
Orbit: 402 x 408 km, 51.6° (Epoch: 17 November)

Event Time Altitude Azimuth Distance (km) Brightness Sun altitude
Exits shadow 06:48:09 - 279° (W) 1,598 -1.5 -6.5°
Reaches altitude 10° 06:48:30 10° 276° (W) 1,464 -1.6 -6.5°
Maximum altitude 06:51:28 32° 212° (SSW) 723 -2.7 -6.0°
Drops below altitude 10° 06:54:26 10° 147° (SSE) 1,461 -0.1 -5.6°
Sets 06:56:37 0° 137° (SE) 2,319 1.3 -5.2°
